Regional Weather Roundup
Issued by NWS Sioux Falls, SD

Home | Current Version | Previous Version | Graphics & Text | Print | Product List | Glossary On
Versions: 1 2 3 4 5 6 7 8 9 10 11 12 13 14 15 16 17 18 19 20 21 22 23 24 25 26 27 28 29 30 31 32 33 34 35 36 37 38 39 40 41 42 43 44 45 46 47 48 49 50
000
ASUS43 KFSD 210002
RWRFSD

WEATHER ROUNDUP FOR SE SOUTH DAKOTA/SW MINNESOTA/NW IOWA
NATIONAL WEATHER SERVICE SIOUX FALLS SD
700 PM CDT SUN APR 20 2014

NOTE: "FAIR" INDICATES FEW OR NO CLOUDS BELOW 12,000 FEET WITH NO
SIGNIFICANT WEATHER AND OR OBSTRUCTIONS TO VISIBILITY.


SDZ038>040-050-052>070-210100-
SOUTHEAST SOUTH DAKOTA

CITY           SKY/WX    TMP DP  RH WIND       PRES   REMARKS
CHAMBERLAIN      N/A     80  42  25 S12       29.83F
6HR MIN TEMP:  74; 6HR MAX TEMP:  82;

HURON          SUNNY     80  39  23 SW6       29.84S
6HR MIN TEMP:  73; 6HR MAX TEMP:  81; 6HR PCP: TRACE;

MADISON        FAIR      77  43  29 SE10      29.87F
MITCHELL       SUNNY     80  42  25 S9        29.84F
6HR MIN TEMP:  75; 6HR MAX TEMP:  83;

SIOUX FALLS    MOSUNNY   77  48  35 S9        29.86S
6HR MIN TEMP:  74; 6HR MAX TEMP:  80;

WINNER         FAIR      78  42  27 S7        29.82F
YANKTON        MOSUNNY   79  52  38 S10       29.85F
$$

MNZ071-072-080-081-089-090-097-098-210100-
SOUTHWEST MINNESOTA

CITY           SKY/WX    TMP DP  RH WIND       PRES   REMARKS
FAIRMONT       MOSUNNY   73  54  49 SE8       29.91F
JACKSON        MOSUNNY   77  50  38 S6        29.90F
LUVERNE        MOSUNNY   79  46  31 SE7       29.87F
MARSHALL       SUNNY     73  37  27 E13       29.89F
6HR MIN TEMP:  70; 6HR MAX TEMP:  75;

MONTEVIDEO     MOSUNNY   73  39  29 SE8       29.93S
PIPESTONE      MOSUNNY   77  43  29 SE9       29.88F
REDWOOD FALLS  MOSUNNY   74  46  36 E6        29.91S
TRACY          SUNNY     74  48  39 E7        29.90F
WINDOM         SUNNY     75  50  41 E5        29.90S
WORTHINGTON    MOSUNNY   75  48  38 S9        29.91F
$$

IAZ001>003-012>014-020>022-031-032-NEZ013-014-SDZ071-210100-
NORTHWEST IOWA

CITY           SKY/WX    TMP DP  RH WIND       PRES   REMARKS
CHEROKEE       CLOUDY    76  50  40 SW9       29.86F
DENISON        CLOUDY    79  48  34 SW12G21   29.88S
ESTHERVILLE    PTSUNNY   74  55  51 S8        29.88F
SHELDON        PTSUNNY   77  54  44 E8        29.85F
SIOUX CITY     TSTM      71  56  58 W16       29.86S
6HR MIN TEMP:  71; 6HR MAX TEMP:  85; 6HR PCP: TRACE;

SPENCER        PTSUNNY   73  57  57 E5        29.87F
6HR MIN TEMP:  72; 6HR MAX TEMP:  78; 6HR PCP: TRACE;

STORM LAKE     CLOUDY    75  52  43 S10       29.88F
$$

ABBREVIATIONS USED IN REMARKS
   TC - TEMPERATURE IN CELSIUS
  WCI - WIND CHILL INDEX
   HX - HEAT INDEX
  VSB - VISIBILITY




USA.gov is the U.S. government's official web portal to all federal, state and local government web resources and services.